| time (UTC) | temp F | wind direction | speed MPH | gust MPH | rain 1hr in | rain 24hr in | rain mn in | humidity % | barometer mb |
| 20260508181527 | 61 | 0 | 0.0 | 7.0 | 0.00 | 0.00 | 0.00 | 4 | 1014.1 |
| 20260508180527 | 60 | 17 | 4.0 | 13.0 | 0.00 | 0.00 | 0.00 | 4 | 1014.1 |
| 20260508175526 | 60 | 45 | 2.0 | 8.0 | 0.00 | 0.00 | 0.00 | 6 | 1014.1 |
| 20260508174526 | 59 | 101 | 3.0 | 8.0 | 0.00 | 0.00 | 0.00 | 8 | 1014.1 |
| 20260508173526 | 59 | 44 | 3.0 | 7.0 | 0.00 | 0.00 | 0.00 | 8 | 1014.1 |
| 20260508172526 | 59 | 79 | 2.0 | 8.0 | 0.00 | 0.00 | 0.00 | 11 | 1014.1 |
| 20260508171526 | 59 | 29 | 2.0 | 5.0 | 0.00 | 0.00 | 0.00 | 9 | 1014.1 |
| 20260508170527 | 58 | 98 | 2.0 | 6.0 | 0.00 | 0.00 | 0.00 | 9 | 1014.1 |
| 20260508165526 | 58 | 0 | 0.0 | 8.0 | 0.00 | 0.00 | 0.00 | 9 | 1014.0 |
| 20260508164526 | 58 | 24 | 3.0 | 9.0 | 0.00 | 0.00 | 0.00 | 7 | 1013.9 |
| 20260508163526 | 58 | 32 | 2.0 | 8.0 | 0.00 | 0.00 | 0.00 | 12 | 1013.9 |
| 20260508162528 | 57 | 26 | 3.0 | 10.0 | 0.00 | 0.00 | 0.00 | 9 | 1013.9 |
| 20260508161527 | 56 | 27 | 3.0 | 8.0 | 0.00 | 0.00 | 0.00 | 9 | 1013.8 |
| 20260508160528 | 56 | 7 | 2.0 | 6.0 | 0.00 | 0.00 | 0.00 | 10 | 1013.8 |
| 20260508155527 | 56 | 34 | 1.0 | 8.0 | 0.00 | 0.00 | 0.00 | 12 | 1013.8 |
| 20260508154527 | 55 | 49 | 2.0 | 8.0 | 0.00 | 0.00 | 0.00 | 11 | 1013.7 |
| 20260508153527 | 54 | 23 | 4.0 | 12.0 | 0.00 | 0.00 | 0.00 | 11 | 1013.7 |
| 20260508152526 | 54 | 29 | 3.0 | 15.0 | 0.00 | 0.00 | 0.00 | 13 | 1013.6 |
| 20260508151526 | 54 | 18 | 6.0 | 13.0 | 0.00 | 0.00 | 0.00 | 12 | 1013.5 |
| 20260508150527 | 53 | 1 | 6.0 | 15.0 | 0.00 | 0.00 | 0.00 | 12 | 1013.4 |
| 20260508145526 | 53 | 357 | 7.0 | 13.0 | 0.00 | 0.00 | 0.00 | 12 | 1013.5 |
| 20260508144526 | 53 | 360 | 7.0 | 17.0 | 0.00 | 0.00 | 0.00 | 12 | 1013.4 |
| 20260508143526 | 53 | 347 | 7.0 | 17.0 | 0.00 | 0.00 | 0.00 | 13 | 1013.3 |
| 20260508142526 | 53 | 336 | 6.0 | 15.0 | 0.00 | 0.00 | 0.00 | 11 | 1013.3 |
| 20260508141526 | 52 | 344 | 7.0 | 14.0 | 0.00 | 0.00 | 0.00 | 12 | 1013.2 |
| 20260508140526 | 52 | 342 | 8.0 | 17.0 | 0.00 | 0.00 | 0.00 | 11 | 1013.2 |
| 20260508135526 | 51 | 339 | 8.0 | 19.0 | 0.00 | 0.00 | 0.00 | 10 | 1013.0 |
| 20260508134526 | 51 | 338 | 9.0 | 19.0 | 0.00 | 0.00 | 0.00 | 9 | 1012.9 |
| 20260508133526 | 51 | 330 | 10.0 | 19.0 | 0.00 | 0.00 | 0.00 | 8 | 1012.9 |
| 20260508132526 | 51 | 335 | 10.0 | 17.0 | 0.00 | 0.00 | 0.00 | 8 | 1012.8 |
| 20260508131526 | 51 | 331 | 10.0 | 18.0 | 0.00 | 0.00 | 0.00 | 8 | 1012.8 |
| 20260508130531 | 51 | 329 | 11.0 | 20.0 | 0.00 | 0.00 | 0.00 | 8 | 1012.7 |
| 20260508125526 | 50 | 330 | 10.0 | 20.0 | 0.00 | 0.00 | 0.00 | 8 | 1012.6 |
| 20260508124526 | 50 | 328 | 13.0 | 20.0 | 0.00 | 0.00 | 0.00 | 9 | 1012.5 |
| 20260508123720 | 50 | 333 | 12.0 | 19.0 | 0.00 | 0.00 | 0.00 | 9 | 1012.5 |
| 20260508123526 | 50 | 333 | 12.0 | 19.0 | 0.00 | 0.00 | 0.00 | 9 | 1012.5 |
| 20260508122701 | 50 | 329 | 11.0 | 19.0 | 0.00 | 0.00 | 0.00 | 9 | 1012.4 |
| 20260508122526 | 50 | 329 | 11.0 | 19.0 | 0.00 | 0.00 | 0.00 | 9 | 1012.4 |
| 20260508121526 | 50 | 335 | 11.0 | 19.0 | 0.00 | 0.00 | 0.00 | 10 | 1012.4 |
| 20260508120527 | 50 | 330 | 10.0 | 18.0 | 0.00 | 0.00 | 0.00 | 10 | 1012.3 |
| 20260508115526 | 50 | 337 | 11.0 | 20.0 | 0.00 | 0.00 | 0.00 | 10 | 1012.3 |
| 20260508114526 | 50 | 332 | 10.0 | 19.0 | 0.00 | 0.00 | 0.00 | 12 | 1012.4 |
| 20260508113526 | 50 | 332 | 11.0 | 18.0 | 0.00 | 0.00 | 0.00 | 12 | 1012.4 |
| 20260508112526 | 50 | 335 | 10.0 | 16.0 | 0.00 | 0.00 | 0.00 | 13 | 1012.4 |
| 20260508111526 | 49 | 333 | 11.0 | 17.0 | 0.00 | 0.00 | 0.00 | 13 | 1012.4 |
| 20260508110526 | 49 | 334 | 10.0 | 17.0 | 0.00 | 0.00 | 0.00 | 15 | 1012.4 |
| 20260508105526 | 49 | 331 | 9.0 | 18.0 | 0.00 | 0.00 | 0.00 | 16 | 1012.5 |
| 20260508104526 | 49 | 336 | 9.0 | 18.0 | 0.00 | 0.00 | 0.00 | 17 | 1012.6 |
| 20260508103701 | 49 | 328 | 11.0 | 18.0 | 0.00 | 0.00 | 0.00 | 18 | 1012.6 |
| 20260508103526 | 49 | 328 | 11.0 | 18.0 | 0.00 | 0.00 | 0.00 | 18 | 1012.6 |
| 20260508102526 | 49 | 330 | 10.0 | 17.0 | 0.00 | 0.00 | 0.00 | 16 | 1012.5 |
| 20260508101526 | 49 | 328 | 10.0 | 17.0 | 0.00 | 0.00 | 0.00 | 17 | 1012.5 |
| 20260508100526 | 49 | 329 | 11.0 | 18.0 | 0.00 | 0.00 | 0.00 | 15 | 1012.4 |
| 20260508095526 | 49 | 326 | 10.0 | 18.0 | 0.00 | 0.00 | 0.00 | 13 | 1012.4 |
| 20260508094646 | 50 | 337 | 11.0 | 17.0 | 0.00 | 0.00 | 0.00 | 13 | 1012.4 |
| 20260508094526 | 50 | 337 | 11.0 | 17.0 | 0.00 | 0.00 | 0.00 | 13 | 1012.4 |
| 20260508093526 | 50 | 334 | 10.0 | 17.0 | 0.00 | 0.00 | 0.00 | 12 | 1012.4 |
| 20260508092526 | 50 | 328 | 10.0 | 16.0 | 0.00 | 0.00 | 0.00 | 13 | 1012.4 |
| 20260508091527 | 50 | 330 | 11.0 | 19.0 | 0.00 | 0.00 | 0.00 | 12 | 1012.4 |
| 20260508090526 | 50 | 330 | 10.0 | 18.0 | 0.00 | 0.00 | 0.00 | 10 | 1012.4 |
| 20260508085702 | 50 | 330 | 11.0 | 20.0 | 0.00 | 0.00 | 0.00 | 9 | 1012.5 |
| 20260508085526 | 50 | 330 | 11.0 | 20.0 | 0.00 | 0.00 | 0.00 | 9 | 1012.5 |
| 20260508084526 | 50 | 328 | 12.0 | 17.0 | 0.00 | 0.00 | 0.00 | 9 | 1012.6 |
| 20260508083529 | 50 | 329 | 12.0 | 17.0 | 0.00 | 0.00 | 0.00 | 9 | 1012.6 |
| 20260508082017 | 50 | 330 | 9.0 | 17.0 | 0.00 | 0.00 | 0.00 | 9 | 1012.7 |
| 20260508081929 | 50 | 330 | 9.0 | 17.0 | 0.00 | 0.00 | 0.00 | 9 | 1012.7 |
| 20260508080929 | 50 | 328 | 12.0 | 19.0 | 0.00 | 0.00 | 0.00 | 9 | 1012.8 |
| 20260508080015 | 50 | 314 | 11.0 | 18.0 | 0.00 | 0.00 | 0.00 | 9 | 1012.9 |
| 20260508075929 | 50 | 314 | 11.0 | 18.0 | 0.00 | 0.00 | 0.00 | 9 | 1012.9 |
| 20260508074928 | 50 | 320 | 12.0 | 20.0 | 0.00 | 0.00 | 0.00 | 9 | 1013.0 |
| 20260508074000 | 50 | 321 | 11.0 | 17.0 | 0.00 | 0.00 | 0.00 | 9 | 1013.0 |
| 20260508073928 | 50 | 321 | 11.0 | 17.0 | 0.00 | 0.00 | 0.00 | 9 | 1013.0 |
| 20260508072931 | 50 | 319 | 12.0 | 20.0 | 0.00 | 0.00 | 0.00 | 9 | 1013.1 |
| 20260508071316 | 51 | 318 | 12.0 | 21.0 | 0.00 | 0.00 | 0.00 | 9 | 1013.0 |
| 20260508071228 | 51 | 318 | 12.0 | 21.0 | 0.00 | 0.00 | 0.00 | 9 | 1013.0 |
| 20260508070229 | 51 | 332 | 12.0 | 19.0 | 0.00 | 0.00 | 0.00 | 10 | 1013.2 |
| 20260508065227 | 51 | 324 | 11.0 | 21.0 | 0.00 | 0.00 | 0.00 | 9 | 1013.2 |
| 20260508064228 | 51 | 319 | 11.0 | 20.0 | 0.00 | 0.00 | 0.00 | 10 | 1013.2 |
| 20260508063228 | 51 | 317 | 11.0 | 17.0 | 0.00 | 0.00 | 0.00 | 10 | 1013.2 |
| 20260508062227 | 51 | 317 | 12.0 | 21.0 | 0.00 | 0.00 | 0.00 | 9 | 1013.2 |
| 20260508061227 | 51 | 331 | 12.0 | 19.0 | 0.00 | 0.00 | 0.00 | 8 | 1013.2 |
| 20260508060227 | 51 | 322 | 11.0 | 18.0 | 0.00 | 0.00 | 0.00 | 8 | 1013.2 |
| 20260508055228 | 51 | 323 | 10.0 | 18.0 | 0.00 | 0.00 | 0.00 | 7 | 1013.2 |
| 20260508054328 | 51 | 329 | 10.0 | 16.0 | 0.00 | 0.00 | 0.00 | 7 | 1013.2 |
| 20260508054229 | 51 | 329 | 10.0 | 16.0 | 0.00 | 0.00 | 0.00 | 7 | 1013.2 |
| 20260508053228 | 51 | 327 | 10.0 | 16.0 | 0.00 | 0.00 | 0.00 | 7 | 1013.2 |
| 20260508052336 | 51 | 323 | 12.0 | 18.0 | 0.00 | 0.00 | 0.00 | 6 | 1013.2 |
| 20260508052227 | 51 | 323 | 12.0 | 18.0 | 0.00 | 0.00 | 0.00 | 6 | 1013.2 |
| 20260508051302 | 51 | 318 | 12.0 | 19.0 | 0.00 | 0.00 | 0.00 | 6 | 1013.1 |
| 20260508051227 | 51 | 318 | 12.0 | 19.0 | 0.00 | 0.00 | 0.00 | 6 | 1013.1 |
| 20260508050301 | 51 | 319 | 12.0 | 17.0 | 0.00 | 0.00 | 0.00 | 6 | 1013.1 |
| 20260508050227 | 51 | 319 | 12.0 | 17.0 | 0.00 | 0.00 | 0.00 | 6 | 1013.1 |
| 20260508045306 | 51 | 315 | 12.0 | 18.0 | 0.00 | 0.00 | 0.00 | 6 | 1013.1 |
| 20260508045227 | 51 | 315 | 12.0 | 18.0 | 0.00 | 0.00 | 0.00 | 6 | 1013.1 |
| 20260508044317 | 51 | 317 | 11.0 | 22.0 | 0.00 | 0.00 | 0.00 | 5 | 1013.0 |
| 20260508044227 | 51 | 317 | 11.0 | 22.0 | 0.00 | 0.00 | 0.00 | 5 | 1013.0 |
| 20260508043301 | 51 | 319 | 11.0 | 18.0 | 0.00 | 0.00 | 0.00 | 5 | 1012.9 |
| 20260508043227 | 51 | 319 | 11.0 | 18.0 | 0.00 | 0.00 | 0.00 | 5 | 1012.9 |
| 20260508042227 | 51 | 324 | 12.0 | 17.0 | 0.00 | 0.00 | 0.00 | 5 | 1012.8 |
| 20260508041228 | 51 | 312 | 11.0 | 18.0 | 0.00 | 0.00 | 0.00 | 5 | 1012.7 |
| 20260508040302 | 51 | 316 | 11.0 | 19.0 | 0.00 | 0.00 | 0.00 | 4 | 1012.7 |
| 20260508040227 | 51 | 316 | 11.0 | 19.0 | 0.00 | 0.00 | 0.00 | 4 | 1012.7 |
| 20260508035325 | 51 | 316 | 10.0 | 19.0 | 0.00 | 0.00 | 0.00 | 4 | 1012.6 |
| 20260508035227 | 51 | 316 | 10.0 | 19.0 | 0.00 | 0.00 | 0.00 | 4 | 1012.6 |
| 20260508034310 | 52 | 310 | 15.0 | 21.0 | 0.00 | 0.00 | 0.00 | 4 | 1012.5 |
| 20260508034228 | 52 | 310 | 15.0 | 21.0 | 0.00 | 0.00 | 0.00 | 4 | 1012.5 |
| 20260508033303 | 52 | 310 | 13.0 | 20.0 | 0.00 | 0.00 | 0.00 | 4 | 1012.3 |
| 20260508033227 | 52 | 310 | 13.0 | 20.0 | 0.00 | 0.00 | 0.00 | 4 | 1012.3 |
| 20260508032306 | 52 | 309 | 12.0 | 17.0 | 0.00 | 0.00 | 0.00 | 3 | 1012.2 |
| 20260508032227 | 52 | 309 | 12.0 | 17.0 | 0.00 | 0.00 | 0.00 | 3 | 1012.2 |
| 20260508031326 | 52 | 301 | 12.0 | 17.0 | 0.00 | 0.00 | 0.00 | 3 | 1012.2 |
| 20260508031227 | 52 | 301 | 12.0 | 17.0 | 0.00 | 0.00 | 0.00 | 3 | 1012.2 |
| 20260508030302 | 52 | 310 | 11.0 | 18.0 | 0.00 | 0.00 | 0.00 | 3 | 1012.1 |
| 20260508030227 | 52 | 310 | 11.0 | 18.0 | 0.00 | 0.00 | 0.00 | 3 | 1012.1 |
| 20260508025227 | 52 | 311 | 12.0 | 18.0 | 0.00 | 0.00 | 0.00 | 3 | 1012.0 |
| 20260508024227 | 52 | 316 | 9.0 | 14.0 | 0.00 | 0.00 | 0.00 | 3 | 1012.0 |
| 20260508023228 | 52 | 312 | 9.0 | 14.0 | 0.00 | 0.00 | 0.00 | 4 | 1011.8 |
| 20260508022326 | 53 | 309 | 8.0 | 12.0 | 0.00 | 0.00 | 0.00 | 4 | 1011.7 |
| 20260508022227 | 53 | 309 | 8.0 | 12.0 | 0.00 | 0.00 | 0.00 | 4 | 1011.7 |
| 20260508021318 | 53 | 308 | 8.0 | 12.0 | 0.00 | 0.00 | 0.00 | 4 | 1011.7 |
| 20260508021227 | 53 | 308 | 8.0 | 12.0 | 0.00 | 0.00 | 0.00 | 4 | 1011.7 |
| 20260508020229 | 54 | 297 | 7.0 | 11.0 | 0.00 | 0.00 | 0.00 | 3 | 1011.8 |
| 20260508015227 | 55 | 303 | 4.0 | 9.0 | 0.00 | 0.00 | 0.00 | 1 | 1011.8 |
| 20260508014227 | 56 | 322 | 2.0 | 8.0 | 0.00 | 0.00 | 0.00 | 1 | 1011.8 |
| 20260508013228 | 56 | 325 | 5.0 | 9.0 | 0.00 | 0.00 | 0.00 | 2 | 1011.8 |
| 20260508012227 | 57 | 16 | 1.0 | 5.0 | 0.00 | 0.00 | 0.00 | 1 | 1011.8 |
| 20260508011227 | 57 | 322 | 2.0 | 7.0 | 0.00 | 0.00 | 0.00 | 1 | 1011.8 |
| 20260508010230 | 57 | 21 | 1.0 | 5.0 | 0.00 | 0.00 | 0.00 | 1 | 1011.8 |
| 20260508005227 | 57 | 21 | 1.0 | 5.0 | 0.00 | 0.00 | 0.00 | 1 | 1011.7 |
| 20260508004227 | 57 | 47 | 3.0 | 7.0 | 0.00 | 0.00 | 0.00 | 1 | 1011.7 |
| 20260508003227 | 58 | 22 | 3.0 | 6.0 | 0.00 | 0.00 | 0.00 | 1 | 1011.7 |
| 20260508002227 | 57 | 330 | 1.0 | 8.0 | 0.00 | 0.00 | 0.00 | 2 | 1011.7 |
| 20260508001227 | 57 | 83 | 3.0 | 8.0 | 0.00 | 0.00 | 0.00 | 2 | 1011.7 |
| 20260507235227 | 57 | 97 | 2.0 | 8.0 | 0.00 | 0.00 | 0.00 | 1 | 1011.7 |
| 20260507234227 | 58 | 112 | 2.0 | 9.0 | 0.00 | 0.00 | 0.00 | 1 | 1011.6 |
| 20260507233231 | 58 | 31 | 3.0 | 7.0 | 0.00 | 0.00 | 0.00 | 1 | 1011.7 |
| 20260507232228 | 59 | 10 | 2.0 | 7.0 | 0.00 | 0.00 | 0.00 | 2 | 1011.7 |
| 20260507231227 | 58 | 327 | 1.0 | 4.0 | 0.00 | 0.00 | 0.00 | 3 | 1011.7 |
| 20260507230231 | 57 | 102 | 1.0 | 10.0 | 0.00 | 0.00 | 0.00 | 3 | 1011.7 |
| 20260507225229 | 57 | 51 | 4.0 | 11.0 | 0.00 | 0.00 | 0.00 | 4 | 1011.6 |
| 20260507224229 | 56 | 103 | 3.0 | 11.0 | 0.00 | 0.00 | 0.00 | 4 | 1011.7 |
| 20260507223301 | 57 | 103 | 8.0 | 12.0 | 0.00 | 0.00 | 0.00 | 4 | 1011.7 |
| 20260507223227 | 57 | 103 | 8.0 | 12.0 | 0.00 | 0.00 | 0.00 | 4 | 1011.7 |
| 20260507222227 | 57 | 109 | 6.0 | 10.0 | 0.00 | 0.00 | 0.00 | 4 | 1011.8 |
| 20260507221228 | 57 | 24 | 3.0 | 8.0 | 0.00 | 0.00 | 0.00 | 6 | 1011.8 |
| 20260507220228 | 57 | 46 | 3.0 | 9.0 | 0.00 | 0.00 | 0.00 | 4 | 1011.9 |
| 20260507215227 | 58 | 46 | 5.0 | 10.0 | 0.00 | 0.00 | 0.00 | 3 | 1012.0 |
| 20260507214227 | 57 | 134 | 2.0 | 6.0 | 0.00 | 0.00 | 0.00 | 6 | 1012.1 |
| 20260507213229 | 56 | 79 | 1.0 | 10.0 | 0.00 | 0.00 | 0.00 | 7 | 1012.1 |
| 20260507212229 | 57 | 24 | 1.0 | 6.0 | 0.00 | 0.00 | 0.00 | 6 | 1012.3 |
| 20260507211227 | 57 | 312 | 3.0 | 7.0 | 0.00 | 0.00 | 0.00 | 7 | 1012.4 |
| 20260507210227 | 58 | 37 | 3.0 | 10.0 | 0.00 | 0.00 | 0.00 | 7 | 1012.5 |
| 20260507205227 | 58 | 334 | 5.0 | 11.0 | 0.00 | 0.00 | 0.00 | 8 | 1012.4 |
| 20260507204227 | 57 | 33 | 1.0 | 8.0 | 0.00 | 0.00 | 0.00 | 8 | 1012.5 |
| 20260507203301 | 56 | 72 | 1.0 | 9.0 | 0.00 | 0.00 | 0.00 | 9 | 1012.6 |
| 20260507203228 | 56 | 72 | 1.0 | 9.0 | 0.00 | 0.00 | 0.00 | 9 | 1012.6 |
| 20260507202227 | 56 | 68 | 2.0 | 9.0 | 0.00 | 0.00 | 0.00 | 9 | 1012.7 |
| 20260507201227 | 56 | 83 | 3.0 | 11.0 | 0.00 | 0.00 | 0.00 | 9 | 1012.7 |
| 20260507200227 | 55 | 73 | 5.0 | 10.0 | 0.00 | 0.00 | 0.00 | 9 | 1012.7 |
| 20260507195229 | 55 | 100 | 2.0 | 11.0 | 0.00 | 0.00 | 0.00 | 9 | 1012.7 |
| 20260507194301 | 56 | 66 | 5.0 | 11.0 | 0.00 | 0.00 | 0.00 | 10 | 1012.7 |
| 20260507194227 | 56 | 66 | 5.0 | 11.0 | 0.00 | 0.00 | 0.00 | 10 | 1012.7 |
| 20260507193555 | 56 | 351 | 1.0 | 9.0 | 0.00 | 0.00 | 0.00 | 8 | 1012.9 |
| 20260507193227 | 56 | 351 | 1.0 | 9.0 | 0.00 | 0.00 | 0.00 | 8 | 1012.9 |
| 20260507192227 | 56 | 0 | 0.0 | 9.0 | 0.00 | 0.00 | 0.00 | 10 | 1013.0 |
| 20260507190426 | 56 | 219 | 1.0 | 6.0 | 0.00 | 0.00 | 0.00 | 10 | 1013.1 |
| 20260507185427 | 55 | 81 | 4.0 | 7.0 | 0.00 | 0.00 | 0.00 | 10 | 1013.2 |
| 20260507184427 | 54 | 123 | 8.0 | 12.0 | 0.00 | 0.00 | 0.00 | 8 | 1013.2 |
| 20260507183426 | 54 | 0 | 0.0 | 11.0 | 0.00 | 0.00 | 0.00 | 10 | 1013.1 |
| 20260507182426 | 54 | 96 | 3.0 | 9.0 | 0.00 | 0.00 | 0.00 | 11 | 1013.2 |